Time,TemperatureF,DewpointF,PressureIn,WindDirection,WindDirectionDegrees,WindSpeedMPH,WindSpeedGustMPH,Humidity,HourlyPrecipIn,Conditions,Clouds,dailyrainin,SoftwareType,DateUTC
2013-02-06 00:00:00,22.7,15.4,29.97,SE,144,0.0,2.0,73,0.00,,---,0.00,VWS V13.00,2013-02-06 05:00:00,
2013-02-06 00:05:00,22.6,15.3,29.96,SE,144,0.0,2.0,73,0.00,,---,0.00,VWS V13.00,2013-02-06 05:05:00,
2013-02-06 00:10:00,22.6,15.6,29.96,SE,144,1.0,3.0,74,0.00,,---,0.00,VWS V13.00,2013-02-06 05:10:00,
2013-02-06 00:15:00,22.6,15.9,29.96,SE,144,0.0,3.0,75,0.00,,---,0.00,VWS V13.00,2013-02-06 05:15:00,
2013-02-06 00:20:00,22.5,15.8,29.96,SE,144,1.0,5.0,75,0.00,,---,0.00,VWS V13.00,2013-02-06 05:20:00,
2013-02-06 00:25:00,22.4,16.0,29.96,SE,144,3.0,5.0,76,0.00,,---,0.00,VWS V13.00,2013-02-06 05:25:00,
2013-02-06 00:30:00,22.2,16.1,29.96,SE,144,0.0,5.0,77,0.00,,---,0.00,VWS V13.00,2013-02-06 05:30:00,
2013-02-06 00:35:00,22.1,16.3,29.96,SE,144,0.0,5.0,78,0.00,,---,0.00,VWS V13.00,2013-02-06 05:35:00,
2013-02-06 00:40:00,22.0,16.8,29.96,SE,144,1.0,2.0,80,0.00,,---,0.00,VWS V13.00,2013-02-06 05:40:00,
2013-02-06 00:45:00,21.8,16.6,29.96,SE,144,1.0,3.0,80,0.00,,---,0.00,VWS V13.00,2013-02-06 05:45:00,
2013-02-06 00:50:00,21.8,16.9,29.95,SE,144,1.0,5.0,81,0.00,,---,0.00,VWS V13.00,2013-02-06 05:50:00,
2013-02-06 00:55:00,21.7,16.8,29.95,SE,144,0.0,5.0,81,0.00,,---,0.00,VWS V13.00,2013-02-06 05:55:00,
2013-02-06 01:00:00,21.7,17.1,29.96,SE,144,1.0,5.0,82,0.00,,---,0.00,VWS V13.00,2013-02-06 06:00:00,
2013-02-06 01:05:00,21.7,17.3,29.95,SE,144,0.0,5.0,83,0.00,,---,0.00,VWS V13.00,2013-02-06 06:05:00,
2013-02-06 01:10:00,21.7,17.3,29.95,SE,144,1.0,3.0,83,0.00,,---,0.00,VWS V13.00,2013-02-06 06:10:00,
2013-02-06 01:15:00,21.6,17.2,29.95,SE,144,0.0,3.0,83,0.00,,---,0.00,VWS V13.00,2013-02-06 06:15:00,
2013-02-06 01:20:00,21.6,17.5,29.96,SE,144,0.0,3.0,84,0.00,,---,0.00,VWS V13.00,2013-02-06 06:20:00,
2013-02-06 01:25:00,21.7,17.6,29.96,SE,144,0.0,3.0,84,0.00,,---,0.00,VWS V13.00,2013-02-06 06:25:00,
2013-02-06 01:30:00,21.6,17.8,29.95,SE,144,0.0,3.0,85,0.00,,---,0.00,VWS V13.00,2013-02-06 06:30:00,
2013-02-06 01:35:00,21.6,17.8,29.96,SE,144,0.0,3.0,85,0.00,,---,0.00,VWS V13.00,2013-02-06 06:35:00,
2013-02-06 01:40:00,21.6,17.8,29.96,SE,144,0.0,0.0,85,0.00,,---,0.00,VWS V13.00,2013-02-06 06:40:00,
2013-02-06 01:45:00,21.6,18.1,29.95,SE,144,0.0,1.0,86,0.00,,---,0.00,VWS V13.00,2013-02-06 06:45:00,
2013-02-06 01:50:00,21.5,18.0,29.95,SE,144,0.0,1.0,86,0.00,,---,0.00,VWS V13.00,2013-02-06 06:50:00,
2013-02-06 01:55:00,21.5,18.2,29.96,SE,144,0.0,1.0,87,0.00,,---,0.00,VWS V13.00,2013-02-06 06:55:00,
2013-02-06 02:00:00,21.6,18.3,29.96,SE,144,0.0,3.0,87,0.00,,---,0.00,VWS V13.00,2013-02-06 07:00:00,
2013-02-06 02:05:00,21.6,18.3,29.95,SE,144,1.0,3.0,87,0.00,,---,0.00,VWS V13.00,2013-02-06 07:05:00,
2013-02-06 02:10:00,21.5,18.2,29.95,SE,144,1.0,1.0,87,0.00,,---,0.00,VWS V13.00,2013-02-06 07:10:00,
2013-02-06 02:15:00,21.5,18.5,29.95,SE,144,1.0,2.0,88,0.00,,---,0.00,VWS V13.00,2013-02-06 07:15:00,
2013-02-06 02:20:00,21.5,18.5,29.96,SE,144,0.0,3.0,88,0.00,,---,0.00,VWS V13.00,2013-02-06 07:20:00,
2013-02-06 02:25:00,21.5,18.5,29.96,SE,144,0.0,3.0,88,0.00,,---,0.00,VWS V13.00,2013-02-06 07:25:00,
2013-02-06 02:30:00,21.5,18.5,29.96,SE,144,0.0,3.0,88,0.00,,---,0.00,VWS V13.00,2013-02-06 07:30:00,
2013-02-06 02:35:00,21.6,18.9,29.95,SE,144,0.0,3.0,89,0.00,,---,0.00,VWS V13.00,2013-02-06 07:35:00,
2013-02-06 02:40:00,21.6,18.9,29.95,SE,144,0.0,0.0,89,0.00,,---,0.00,VWS V13.00,2013-02-06 07:40:00,
2013-02-06 02:45:00,21.6,18.9,29.95,SE,144,0.0,1.0,89,0.00,,---,0.00,VWS V13.00,2013-02-06 07:45:00,
2013-02-06 02:50:00,21.6,18.9,29.95,SE,144,0.0,1.0,89,0.00,,---,0.00,VWS V13.00,2013-02-06 07:50:00,
2013-02-06 02:55:00,21.6,18.9,29.95,SE,144,0.0,1.0,89,0.00,,---,0.00,VWS V13.00,2013-02-06 07:55:00,
2013-02-06 03:00:00,21.6,18.9,29.95,SE,144,0.0,1.0,89,0.00,,---,0.00,VWS V13.00,2013-02-06 08:00:00,
2013-02-06 03:05:00,21.6,18.9,29.95,SE,144,0.0,1.0,89,0.00,,---,0.00,VWS V13.00,2013-02-06 08:05:00,
2013-02-06 03:10:00,21.7,19.2,29.95,SE,144,0.0,0.0,90,0.00,,---,0.00,VWS V13.00,2013-02-06 08:10:00,
2013-02-06 03:15:00,21.7,19.2,29.95,SE,144,0.0,0.0,90,0.00,,---,0.00,VWS V13.00,2013-02-06 08:15:00,
2013-02-06 03:20:00,21.8,19.3,29.95,SE,144,0.0,0.0,90,0.00,,---,0.00,VWS V13.00,2013-02-06 08:20:00,
2013-02-06 03:25:00,21.8,19.3,29.95,SE,144,0.0,0.0,90,0.00,,---,0.00,VWS V13.00,2013-02-06 08:25:00,
2013-02-06 03:30:00,21.9,19.4,29.95,SE,144,0.0,0.0,90,0.00,,---,0.00,VWS V13.00,2013-02-06 08:30:00,
2013-02-06 03:35:00,21.9,19.4,29.95,SE,144,0.0,0.0,90,0.00,,---,0.00,VWS V13.00,2013-02-06 08:35:00,
2013-02-06 03:40:00,21.9,19.4,29.95,SE,144,0.0,0.0,90,0.00,,---,0.00,VWS V13.00,2013-02-06 08:40:00,
2013-02-06 03:45:00,21.9,19.4,29.95,SE,144,0.0,0.0,90,0.00,,---,0.00,VWS V13.00,2013-02-06 08:45:00,
2013-02-06 03:50:00,21.9,19.4,29.95,SE,144,0.0,0.0,90,0.00,,---,0.00,VWS V13.00,2013-02-06 08:50:00,
2013-02-06 03:55:00,22.0,19.5,29.95,SE,144,0.0,0.0,90,0.00,,---,0.00,VWS V13.00,2013-02-06 08:55:00,
2013-02-06 04:00:00,22.0,19.5,29.95,SE,144,0.0,0.0,90,0.00,,---,0.00,VWS V13.00,2013-02-06 09:00:00,
2013-02-06 04:05:00,22.0,19.5,29.95,SE,144,0.0,0.0,90,0.00,,---,0.00,VWS V13.00,2013-02-06 09:05:00,
2013-02-06 04:10:00,22.0,19.5,29.95,SE,144,0.0,0.0,90,0.00,,---,0.00,VWS V13.00,2013-02-06 09:10:00,
2013-02-06 04:15:00,22.0,19.5,29.95,SE,144,0.0,0.0,90,0.00,,---,0.00,VWS V13.00,2013-02-06 09:15:00,
2013-02-06 04:20:00,22.0,19.8,29.95,SE,144,0.0,0.0,91,0.00,,---,0.00,VWS V13.00,2013-02-06 09:20:00,
2013-02-06 04:25:00,21.9,19.7,29.95,SE,144,0.0,0.0,91,0.00,,---,0.00,VWS V13.00,2013-02-06 09:25:00,
2013-02-06 04:30:00,21.9,19.7,29.95,SE,144,0.0,0.0,91,0.00,,---,0.00,VWS V13.00,2013-02-06 09:30:00,
2013-02-06 04:35:00,21.9,19.7,29.95,SE,144,0.0,0.0,91,0.00,,---,0.00,VWS V13.00,2013-02-06 09:35:00,
2013-02-06 04:40:00,21.8,19.6,29.95,SE,144,0.0,0.0,91,0.00,,---,0.00,VWS V13.00,2013-02-06 09:40:00,
2013-02-06 04:45:00,21.8,19.6,29.95,SE,144,0.0,0.0,91,0.00,,---,0.00,VWS V13.00,2013-02-06 09:45:00,
2013-02-06 04:50:00,21.8,19.6,29.95,SE,144,0.0,0.0,91,0.00,,---,0.00,VWS V13.00,2013-02-06 09:50:00,
2013-02-06 04:55:00,21.8,19.6,29.95,SE,144,0.0,0.0,91,0.00,,---,0.00,VWS V13.00,2013-02-06 09:55:00,
2013-02-06 05:00:00,21.7,19.5,29.95,SE,144,0.0,0.0,91,0.00,,---,0.00,VWS V13.00,2013-02-06 10:00:00,
2013-02-06 05:05:00,21.6,19.4,29.96,SE,144,0.0,0.0,91,0.00,,---,0.00,VWS V13.00,2013-02-06 10:05:00,
2013-02-06 05:10:00,21.5,19.3,29.96,SE,144,0.0,0.0,91,0.00,,---,0.00,VWS V13.00,2013-02-06 10:10:00,
2013-02-06 05:15:00,21.2,19.0,29.96,SE,144,0.0,0.0,91,0.00,,---,0.00,VWS V13.00,2013-02-06 10:15:00,
2013-02-06 05:20:00,21.0,18.8,29.96,SE,144,0.0,0.0,91,0.00,,---,0.00,VWS V13.00,2013-02-06 10:20:00,
2013-02-06 05:25:00,20.8,18.6,29.96,SE,144,0.0,0.0,91,0.00,,---,0.00,VWS V13.00,2013-02-06 10:25:00,
2013-02-06 05:30:00,20.7,18.5,29.97,SE,144,0.0,0.0,91,0.00,,---,0.00,VWS V13.00,2013-02-06 10:30:00,
2013-02-06 05:35:00,20.7,18.5,29.97,SE,144,0.0,0.0,91,0.00,,---,0.00,VWS V13.00,2013-02-06 10:35:00,
2013-02-06 05:40:00,20.8,18.9,29.97,SE,144,0.0,0.0,92,0.00,,---,0.00,VWS V13.00,2013-02-06 10:40:00,
2013-02-06 05:45:00,20.8,18.9,29.97,SE,144,0.0,0.0,92,0.00,,---,0.00,VWS V13.00,2013-02-06 10:45:00,
2013-02-06 05:50:00,20.9,19.0,29.97,SE,144,0.0,0.0,92,0.00,,---,0.00,VWS V13.00,2013-02-06 10:50:00,
2013-02-06 05:55:00,21.0,19.0,29.97,SE,144,0.0,0.0,92,0.00,,---,0.00,VWS V13.00,2013-02-06 10:55:00,
2013-02-06 06:00:00,21.1,19.1,29.97,SE,144,0.0,0.0,92,0.00,,---,0.00,VWS V13.00,2013-02-06 11:00:00,
2013-02-06 06:05:00,21.1,19.1,29.98,SE,144,0.0,0.0,92,0.00,,---,0.00,VWS V13.00,2013-02-06 11:05:00,
2013-02-06 06:10:00,21.2,19.2,29.98,SE,144,0.0,0.0,92,0.00,,---,0.00,VWS V13.00,2013-02-06 11:10:00,
2013-02-06 06:15:00,21.2,19.2,29.98,SE,144,0.0,0.0,92,0.00,,---,0.00,VWS V13.00,2013-02-06 11:15:00,
2013-02-06 06:20:00,21.2,19.2,29.98,SE,144,0.0,0.0,92,0.00,,---,0.00,VWS V13.00,2013-02-06 11:20:00,
2013-02-06 06:25:00,21.2,19.2,29.98,SE,144,0.0,1.0,92,0.00,,---,0.00,VWS V13.00,2013-02-06 11:25:00,
2013-02-06 06:30:00,21.2,19.2,29.98,SE,144,0.0,2.0,92,0.00,,---,0.00,VWS V13.00,2013-02-06 11:30:00,
2013-02-06 06:35:00,21.3,19.3,29.98,SE,144,0.0,2.0,92,0.00,,---,0.00,VWS V13.00,2013-02-06 11:35:00,
2013-02-06 06:40:00,21.3,19.6,29.99,SE,144,0.0,0.0,93,0.00,,---,0.00,VWS V13.00,2013-02-06 11:40:00,
2013-02-06 06:45:00,21.2,19.2,29.99,SE,144,0.0,0.0,92,0.00,,---,0.00,VWS V13.00,2013-02-06 11:45:00,
2013-02-06 06:50:00,21.2,19.2,29.99,SE,144,0.0,0.0,92,0.00,,---,0.00,VWS V13.00,2013-02-06 11:50:00,
2013-02-06 06:55:00,21.1,19.1,30.00,SE,144,0.0,0.0,92,0.00,,---,0.00,VWS V13.00,2013-02-06 11:55:00,
2013-02-06 07:00:00,21.1,19.4,30.00,SE,144,0.0,0.0,93,0.00,,---,0.00,VWS V13.00,2013-02-06 12:00:00,
2013-02-06 07:05:00,21.1,19.4,30.00,SE,144,0.0,0.0,93,0.00,,---,0.00,VWS V13.00,2013-02-06 12:05:00,
2013-02-06 07:10:00,21.2,19.5,30.00,SE,144,0.0,0.0,93,0.00,,---,0.00,VWS V13.00,2013-02-06 12:10:00,
2013-02-06 07:15:00,21.3,19.6,30.00,SE,144,0.0,0.0,93,0.00,,---,0.00,VWS V13.00,2013-02-06 12:15:00,
2013-02-06 07:20:00,21.5,19.8,30.00,SE,144,0.0,0.0,93,0.00,,---,0.00,VWS V13.00,2013-02-06 12:20:00,
2013-02-06 07:25:00,21.6,19.9,30.00,SE,144,0.0,0.0,93,0.00,,---,0.00,VWS V13.00,2013-02-06 12:25:00,
2013-02-06 07:30:00,21.8,20.1,30.00,SE,144,0.0,0.0,93,0.00,,---,0.00,VWS V13.00,2013-02-06 12:30:00,
2013-02-06 07:35:00,22.0,20.3,30.00,SE,144,0.0,0.0,93,0.00,,---,0.00,VWS V13.00,2013-02-06 12:35:00,
2013-02-06 07:40:00,22.1,20.4,30.00,SE,144,0.0,0.0,93,0.00,,---,0.00,VWS V13.00,2013-02-06 12:40:00,
2013-02-06 07:45:00,22.2,20.5,30.00,SE,144,1.0,1.0,93,0.00,,---,0.00,VWS V13.00,2013-02-06 12:45:00,
2013-02-06 07:50:00,22.4,20.7,30.00,SE,144,0.0,1.0,93,0.00,,---,0.00,VWS V13.00,2013-02-06 12:50:00,
2013-02-06 07:55:00,22.4,20.7,30.00,SE,144,0.0,1.0,93,0.00,,---,0.00,VWS V13.00,2013-02-06 12:55:00,
2013-02-06 08:00:00,22.5,20.8,30.00,SE,144,0.0,1.0,93,0.00,,---,0.00,VWS V13.00,2013-02-06 13:00:00,
2013-02-06 08:05:00,22.7,21.0,30.00,SE,144,0.0,1.0,93,0.00,,---,0.00,VWS V13.00,2013-02-06 13:05:00,
2013-02-06 08:10:00,22.8,21.1,30.01,SE,144,2.0,2.0,93,0.00,,---,0.00,VWS V13.00,2013-02-06 13:10:00,
2013-02-06 08:15:00,23.0,21.3,30.01,SE,144,0.0,2.0,93,0.00,,---,0.00,VWS V13.00,2013-02-06 13:15:00,
2013-02-06 08:20:00,23.1,21.4,30.01,SE,144,0.0,2.0,93,0.00,,---,0.00,VWS V13.00,2013-02-06 13:20:00,
2013-02-06 08:25:00,23.2,21.5,30.01,SE,144,1.0,2.0,93,0.00,,---,0.00,VWS V13.00,2013-02-06 13:25:00,
2013-02-06 08:30:00,23.4,21.7,30.01,SE,144,1.0,2.0,93,0.00,,---,0.00,VWS V13.00,2013-02-06 13:30:00,
2013-02-06 08:35:00,23.5,21.5,30.01,SE,144,0.0,2.0,92,0.00,,---,0.00,VWS V13.00,2013-02-06 13:35:00,
2013-02-06 08:40:00,23.7,21.7,30.01,SE,144,0.0,2.0,92,0.00,,---,0.00,VWS V13.00,2013-02-06 13:40:00,
2013-02-06 08:45:00,23.9,21.9,30.01,SE,144,1.0,2.0,92,0.00,,---,0.00,VWS V13.00,2013-02-06 13:45:00,
2013-02-06 08:50:00,24.1,22.1,30.01,SE,144,2.0,2.0,92,0.00,,---,0.00,VWS V13.00,2013-02-06 13:50:00,
2013-02-06 08:55:00,24.3,22.3,30.01,SE,144,1.0,2.0,92,0.00,,---,0.00,VWS V13.00,2013-02-06 13:55:00,
2013-02-06 09:00:00,24.5,22.5,30.01,SE,144,0.0,2.0,92,0.00,,---,0.00,VWS V13.00,2013-02-06 14:00:00,
2013-02-06 09:05:00,24.8,22.8,30.01,SE,144,1.0,2.0,92,0.00,,---,0.00,VWS V13.00,2013-02-06 14:05:00,
2013-02-06 09:10:00,25.1,23.1,30.01,SE,144,0.0,1.0,92,0.00,,---,0.00,VWS V13.00,2013-02-06 14:10:00,
2013-02-06 09:15:00,25.4,23.1,30.00,SE,144,1.0,2.0,91,0.00,,---,0.00,VWS V13.00,2013-02-06 14:15:00,
2013-02-06 09:20:00,25.7,23.4,30.00,SE,144,0.0,2.0,91,0.00,,---,0.00,VWS V13.00,2013-02-06 14:20:00,
2013-02-06 09:25:00,26.0,23.5,30.01,SE,144,0.0,2.0,90,0.00,,---,0.00,VWS V13.00,2013-02-06 14:25:00,
2013-02-06 09:30:00,26.2,23.4,30.01,SE,144,0.0,4.0,89,0.00,,---,0.00,VWS V13.00,2013-02-06 14:30:00,
2013-02-06 09:35:00,26.7,23.9,30.00,SE,144,2.0,4.0,89,0.00,,---,0.00,VWS V13.00,2013-02-06 14:35:00,
2013-02-06 09:40:00,27.4,24.3,30.01,SE,144,2.0,2.0,88,0.00,,---,0.00,VWS V13.00,2013-02-06 14:40:00,
2013-02-06 09:45:00,28.0,24.6,30.00,SE,144,0.0,3.0,87,0.00,,---,0.00,VWS V13.00,2013-02-06 14:45:00,
2013-02-06 09:50:00,28.8,25.4,30.00,SE,144,1.0,3.0,87,0.00,,---,0.00,VWS V13.00,2013-02-06 14:50:00,
2013-02-06 09:55:00,29.3,25.4,30.00,South,178,3.0,6.0,85,0.00,,---,0.00,VWS V13.00,2013-02-06 14:55:00,
2013-02-06 10:00:00,29.5,25.3,30.00,WSW,247,5.0,9.0,84,0.00,,---,0.00,VWS V13.00,2013-02-06 15:00:00,
2013-02-06 10:05:00,29.9,25.4,30.00,SSE,168,1.0,10.0,83,0.00,,---,0.00,VWS V13.00,2013-02-06 15:05:00,
2013-02-06 10:10:00,30.5,25.1,30.00,SW,232,3.0,7.0,80,0.00,,---,0.00,VWS V13.00,2013-02-06 15:10:00,
2013-02-06 10:15:00,30.6,24.9,30.00,WSW,257,4.0,7.0,79,0.00,,---,0.00,VWS V13.00,2013-02-06 15:15:00,
2013-02-06 10:20:00,30.8,24.8,30.00,SW,232,1.0,9.0,78,0.00,,---,0.00,VWS V13.00,2013-02-06 15:20:00,
2013-02-06 10:25:00,31.0,24.6,30.00,SW,232,2.0,9.0,77,0.00,,---,0.00,VWS V13.00,2013-02-06 15:25:00,
2013-02-06 10:30:00,30.9,24.5,30.00,WSW,252,5.0,9.0,77,0.00,,---,0.00,VWS V13.00,2013-02-06 15:30:00,
2013-02-06 10:35:00,31.0,24.3,30.00,WSW,254,1.0,9.0,76,0.00,,---,0.00,VWS V13.00,2013-02-06 15:35:00,
2013-02-06 10:40:00,31.1,23.8,30.00,WNW,287,2.0,9.0,74,0.00,,---,0.00,VWS V13.00,2013-02-06 15:40:00,
2013-02-06 10:45:00,31.6,23.6,30.01,SSW,207,3.0,9.0,72,0.00,,---,0.00,VWS V13.00,2013-02-06 15:45:00,
2013-02-06 10:50:00,33.0,24.6,30.01,SW,229,4.0,9.0,71,0.00,,---,0.00,VWS V13.00,2013-02-06 15:50:00,
2013-02-06 10:55:00,33.9,23.8,30.01,West,271,4.0,9.0,66,0.00,,---,0.00,VWS V13.00,2013-02-06 15:55:00,
2013-02-06 11:00:00,34.0,23.1,30.01,SW,229,9.0,9.0,64,0.00,,---,0.00,VWS V13.00,2013-02-06 16:00:00,
2013-02-06 11:05:00,33.4,23.6,30.01,WSW,256,2.0,9.0,67,0.00,,---,0.00,VWS V13.00,2013-02-06 16:05:00,
2013-02-06 11:10:00,33.6,23.8,30.00,WSW,242,5.0,9.0,67,0.00,,---,0.00,VWS V13.00,2013-02-06 16:10:00,
2013-02-06 11:15:00,34.1,23.6,30.00,West,270,3.0,9.0,65,0.00,,---,0.00,VWS V13.00,2013-02-06 16:15:00,
2013-02-06 11:20:00,33.4,22.5,30.00,SW,229,7.0,10.0,64,0.00,,---,0.00,VWS V13.00,2013-02-06 16:20:00,
2013-02-06 11:25:00,32.6,22.5,30.00,West,272,2.0,11.0,66,0.00,,---,0.00,VWS V13.00,2013-02-06 16:25:00,
2013-02-06 11:30:00,32.5,22.1,30.00,NW,307,9.0,11.0,65,0.00,,---,0.00,VWS V13.00,2013-02-06 16:30:00,
2013-02-06 11:35:00,32.8,23.1,30.00,SW,219,5.0,11.0,67,0.00,,---,0.00,VWS V13.00,2013-02-06 16:35:00,
2013-02-06 11:40:00,33.5,23.0,30.00,West,265,6.0,10.0,65,0.00,,---,0.00,VWS V13.00,2013-02-06 16:40:00,
2013-02-06 11:45:00,33.4,22.5,30.00,SW,222,6.0,14.0,64,0.00,,---,0.00,VWS V13.00,2013-02-06 16:45:00,
2013-02-06 11:50:00,33.4,22.9,30.00,West,273,2.0,14.0,65,0.00,,---,0.00,VWS V13.00,2013-02-06 16:50:00,
2013-02-06 11:55:00,33.5,22.6,30.00,WSW,242,4.0,14.0,64,0.00,,---,0.00,VWS V13.00,2013-02-06 16:55:00,
2013-02-06 12:00:00,34.0,23.5,29.99,West,279,3.0,14.0,65,0.00,,---,0.00,VWS V13.00,2013-02-06 17:00:00,
2013-02-06 12:05:00,34.5,22.8,29.99,WSW,252,3.0,14.0,62,0.00,,---,0.00,VWS V13.00,2013-02-06 17:05:00,
2013-02-06 12:10:00,34.6,22.2,29.99,WNW,296,2.0,13.0,60,0.00,,---,0.00,VWS V13.00,2013-02-06 17:10:00,
2013-02-06 12:15:00,34.9,22.8,29.99,SW,230,10.0,13.0,61,0.00,,---,0.00,VWS V13.00,2013-02-06 17:15:00,
2013-02-06 12:20:00,35.1,22.6,29.99,SW,233,6.0,13.0,60,0.00,,---,0.00,VWS V13.00,2013-02-06 17:20:00,
2013-02-06 12:25:00,34.6,21.8,29.99,West,269,5.0,13.0,59,0.00,,---,0.00,VWS V13.00,2013-02-06 17:25:00,
2013-02-06 12:30:00,34.6,22.5,29.99,WSW,238,7.0,13.0,61,0.00,,---,0.00,VWS V13.00,2013-02-06 17:30:00,
2013-02-06 12:35:00,34.7,21.9,29.99,West,261,2.0,13.0,59,0.00,,---,0.00,VWS V13.00,2013-02-06 17:35:00,
2013-02-06 12:40:00,34.2,21.8,29.99,WSW,251,4.0,12.0,60,0.00,,---,0.00,VWS V13.00,2013-02-06 17:40:00,
2013-02-06 12:45:00,33.4,21.8,30.00,WSW,252,5.0,14.0,62,0.00,,---,0.00,VWS V13.00,2013-02-06 17:45:00,
2013-02-06 12:50:00,32.8,21.6,30.00,West,270,5.0,14.0,63,0.00,,---,0.00,VWS V13.00,2013-02-06 17:50:00,
2013-02-06 12:55:00,32.7,21.5,30.00,West,268,5.0,14.0,63,0.00,,---,0.00,VWS V13.00,2013-02-06 17:55:00,
2013-02-06 13:00:00,32.6,21.4,30.00,West,276,2.0,14.0,63,0.00,,---,0.00,VWS V13.00,2013-02-06 18:00:00,
2013-02-06 13:05:00,32.5,21.7,30.01,WSW,244,4.0,14.0,64,0.00,,---,0.00,VWS V13.00,2013-02-06 18:05:00,
2013-02-06 13:10:00,32.5,21.7,30.00,West,280,4.0,6.0,64,0.00,,---,0.00,VWS V13.00,2013-02-06 18:10:00,
2013-02-06 13:15:00,32.5,21.7,30.00,WSW,258,0.0,7.0,64,0.00,,---,0.00,VWS V13.00,2013-02-06 18:15:00,
2013-02-06 13:20:00,32.6,22.1,30.00,WSW,237,5.0,9.0,65,0.00,,---,0.00,VWS V13.00,2013-02-06 18:20:00,
2013-02-06 13:25:00,32.7,21.9,30.01,WNW,286,6.0,13.0,64,0.00,,---,0.00,VWS V13.00,2013-02-06 18:25:00,
2013-02-06 13:30:00,32.5,21.7,30.01,NW,314,1.0,13.0,64,0.00,,---,0.00,VWS V13.00,2013-02-06 18:30:00,
2013-02-06 13:35:00,32.4,21.6,30.02,WNW,288,4.0,14.0,64,0.00,,---,0.00,VWS V13.00,2013-02-06 18:35:00,
2013-02-06 13:40:00,32.3,21.9,30.01,West,269,3.0,11.0,65,0.00,,---,0.00,VWS V13.00,2013-02-06 18:40:00,
2013-02-06 13:45:00,32.4,22.0,30.01,NNW,338,3.0,11.0,65,0.00,,---,0.00,VWS V13.00,2013-02-06 18:45:00,
2013-02-06 13:50:00,32.5,21.7,30.01,West,261,8.0,11.0,64,0.00,,---,0.00,VWS V13.00,2013-02-06 18:50:00,
2013-02-06 13:55:00,32.5,21.7,30.01,West,268,7.0,11.0,64,0.00,,---,0.00,VWS V13.00,2013-02-06 18:55:00,
2013-02-06 14:00:00,32.5,21.3,30.01,WNW,284,2.0,11.0,63,0.00,,---,0.00,VWS V13.00,2013-02-06 19:00:00,
2013-02-06 14:05:00,32.4,21.6,30.01,West,281,1.0,11.0,64,0.00,,---,0.00,VWS V13.00,2013-02-06 19:05:00,
2013-02-06 14:10:00,32.4,21.6,30.01,West,281,2.0,4.0,64,0.00,,---,0.00,VWS V13.00,2013-02-06 19:10:00,
2013-02-06 14:15:00,32.5,21.3,30.01,WNW,296,4.0,11.0,63,0.00,,---,0.00,VWS V13.00,2013-02-06 19:15:00,
2013-02-06 14:20:00,32.8,21.2,30.01,West,264,2.0,11.0,62,0.00,,---,0.00,VWS V13.00,2013-02-06 19:20:00,
2013-02-06 14:25:00,33.9,20.3,30.01,NW,314,9.0,11.0,57,0.00,,---,0.00,VWS V13.00,2013-02-06 19:25:00,
2013-02-06 14:30:00,34.4,20.3,30.01,West,281,6.0,12.0,56,0.00,,---,0.00,VWS V13.00,2013-02-06 19:30:00,
2013-02-06 14:35:00,34.5,20.0,30.01,West,281,11.0,14.0,55,0.00,,---,0.00,VWS V13.00,2013-02-06 19:35:00,
2013-02-06 14:40:00,34.6,20.1,30.01,West,280,1.0,10.0,55,0.00,,---,0.00,VWS V13.00,2013-02-06 19:40:00,
2013-02-06 14:45:00,34.4,19.5,30.02,West,263,7.0,12.0,54,0.00,,---,0.00,VWS V13.00,2013-02-06 19:45:00,
2013-02-06 14:50:00,33.7,18.8,30.03,NW,322,6.0,17.0,54,0.00,,---,0.00,VWS V13.00,2013-02-06 19:50:00,
2013-02-06 14:55:00,33.3,18.9,30.03,WNW,292,5.0,17.0,55,0.00,,---,0.00,VWS V13.00,2013-02-06 19:55:00,
2013-02-06 15:00:00,33.1,18.7,30.03,WNW,290,6.0,17.0,55,0.00,,---,0.00,VWS V13.00,2013-02-06 20:00:00,
2013-02-06 15:05:00,33.0,19.0,30.03,WNW,300,6.0,17.0,56,0.00,,---,0.00,VWS V13.00,2013-02-06 20:05:00,
2013-02-06 15:10:00,32.9,18.9,30.03,WNW,302,5.0,11.0,56,0.00,,---,0.00,VWS V13.00,2013-02-06 20:10:00,
2013-02-06 15:15:00,33.0,19.4,30.04,West,281,3.0,11.0,57,0.00,,---,0.00,VWS V13.00,2013-02-06 20:15:00,
2013-02-06 15:20:00,33.2,20.4,30.04,WNW,297,2.0,11.0,59,0.00,,---,0.00,VWS V13.00,2013-02-06 20:20:00,
2013-02-06 15:25:00,33.9,19.9,30.04,NW,317,4.0,11.0,56,0.00,,---,0.00,VWS V13.00,2013-02-06 20:25:00,
2013-02-06 15:30:00,33.9,20.3,30.04,West,267,5.0,11.0,57,0.00,,---,0.00,VWS V13.00,2013-02-06 20:30:00,
2013-02-06 15:35:00,33.6,20.0,30.04,West,264,4.0,11.0,57,0.00,,---,0.00,VWS V13.00,2013-02-06 20:35:00,
2013-02-06 15:40:00,33.5,19.9,30.04,NNE,13,5.0,11.0,57,0.00,,---,0.00,VWS V13.00,2013-02-06 20:40:00,
2013-02-06 15:45:00,33.6,20.4,30.05,WNW,284,2.0,11.0,58,0.00,,---,0.00,VWS V13.00,2013-02-06 20:45:00,
2013-02-06 15:50:00,34.0,20.8,30.05,WNW,294,3.0,11.0,58,0.00,,---,0.00,VWS V13.00,2013-02-06 20:50:00,
2013-02-06 15:55:00,34.0,20.4,30.06,WNW,292,7.0,11.0,57,0.00,,---,0.00,VWS V13.00,2013-02-06 20:55:00,
2013-02-06 16:00:00,33.6,20.0,30.06,WNW,288,3.0,12.0,57,0.00,,---,0.00,VWS V13.00,2013-02-06 21:00:00,
2013-02-06 16:05:00,32.9,19.8,30.06,WNW,288,5.0,12.0,58,0.00,,---,0.00,VWS V13.00,2013-02-06 21:05:00,
2013-02-06 16:10:00,32.6,19.9,30.06,WNW,283,7.0,7.0,59,0.00,,---,0.00,VWS V13.00,2013-02-06 21:10:00,
2013-02-06 16:15:00,32.4,19.3,30.07,NW,307,9.0,14.0,58,0.00,,---,0.00,VWS V13.00,2013-02-06 21:15:00,
2013-02-06 16:20:00,32.3,19.2,30.08,NW,318,9.0,14.0,58,0.00,,---,0.00,VWS V13.00,2013-02-06 21:20:00,
2013-02-06 16:25:00,32.2,19.1,30.08,NW,325,6.0,14.0,58,0.00,,---,0.00,VWS V13.00,2013-02-06 21:25:00,
2013-02-06 16:30:00,32.0,18.9,30.08,WNW,292,3.0,14.0,58,0.00,,---,0.00,VWS V13.00,2013-02-06 21:30:00,
2013-02-06 16:35:00,31.9,18.8,30.08,WNW,285,3.0,14.0,58,0.00,,---,0.00,VWS V13.00,2013-02-06 21:35:00,
2013-02-06 16:40:00,31.6,18.5,30.08,West,275,4.0,9.0,58,0.00,,---,0.00,VWS V13.00,2013-02-06 21:40:00,
2013-02-06 16:45:00,31.4,18.7,30.09,WNW,286,1.0,10.0,59,0.00,,---,0.00,VWS V13.00,2013-02-06 21:45:00,
2013-02-06 16:50:00,31.3,18.6,30.09,WNW,301,1.0,10.0,59,0.00,,---,0.00,VWS V13.00,2013-02-06 21:50:00,
2013-02-06 16:55:00,31.1,18.9,30.09,WNW,300,3.0,10.0,60,0.00,,---,0.00,VWS V13.00,2013-02-06 21:55:00,
2013-02-06 17:00:00,31.0,18.8,30.09,WNW,290,1.0,10.0,60,0.00,,---,0.00,VWS V13.00,2013-02-06 22:00:00,
2013-02-06 17:05:00,31.0,18.8,30.09,NW,304,4.0,10.0,60,0.00,,---,0.00,VWS V13.00,2013-02-06 22:05:00,
2013-02-06 17:10:00,30.8,17.8,30.10,WNW,302,3.0,8.0,58,0.00,,---,0.00,VWS V13.00,2013-02-06 22:10:00,
2013-02-06 17:15:00,30.7,16.9,30.10,WNW,298,1.0,9.0,56,0.00,,---,0.00,VWS V13.00,2013-02-06 22:15:00,
2013-02-06 17:20:00,30.5,17.1,30.10,NNW,338,3.0,9.0,57,0.00,,---,0.00,VWS V13.00,2013-02-06 22:20:00,
2013-02-06 17:25:00,30.2,16.4,30.10,NNW,331,3.0,10.0,56,0.00,,---,0.00,VWS V13.00,2013-02-06 22:25:00,
2013-02-06 17:30:00,30.1,15.9,30.11,NW,321,1.0,10.0,55,0.00,,---,0.00,VWS V13.00,2013-02-06 22:30:00,
2013-02-06 17:35:00,30.1,15.5,30.11,NW,326,4.0,10.0,54,0.00,,---,0.00,VWS V13.00,2013-02-06 22:35:00,
2013-02-06 17:40:00,29.9,15.7,30.12,NW,318,1.0,4.0,55,0.00,,---,0.00,VWS V13.00,2013-02-06 22:40:00,
2013-02-06 17:45:00,29.7,15.1,30.12,NW,310,0.0,6.0,54,0.00,,---,0.00,VWS V13.00,2013-02-06 22:45:00,
2013-02-06 17:50:00,29.6,14.1,30.12,NW,317,3.0,8.0,52,0.00,,---,0.00,VWS V13.00,2013-02-06 22:50:00,
2013-02-06 17:55:00,29.6,14.6,30.12,NW,304,3.0,8.0,53,0.00,,---,0.00,VWS V13.00,2013-02-06 22:55:00,
2013-02-06 18:00:00,29.4,14.4,30.12,WNW,288,3.0,8.0,53,0.00,,---,0.00,VWS V13.00,2013-02-06 23:00:00,
2013-02-06 18:05:00,29.2,14.2,30.13,WNW,290,2.0,8.0,53,0.00,,---,0.00,VWS V13.00,2013-02-06 23:05:00,
2013-02-06 18:10:00,29.1,14.1,30.13,WNW,291,3.0,5.0,53,0.00,,---,0.00,VWS V13.00,2013-02-06 23:10:00,
2013-02-06 18:15:00,29.0,14.0,30.14,WNW,286,3.0,9.0,53,0.00,,---,0.00,VWS V13.00,2013-02-06 23:15:00,
2013-02-06 18:20:00,29.0,13.6,30.14,West,281,2.0,9.0,52,0.00,,---,0.00,VWS V13.00,2013-02-06 23:20:00,
2013-02-06 18:25:00,28.9,13.9,30.14,WNW,284,5.0,9.0,53,0.00,,---,0.00,VWS V13.00,2013-02-06 23:25:00,
2013-02-06 18:30:00,28.8,13.4,30.14,WNW,292,2.0,9.0,52,0.00,,---,0.00,VWS V13.00,2013-02-06 23:30:00,
2013-02-06 18:35:00,28.8,13.4,30.15,West,281,2.0,10.0,52,0.00,,---,0.00,VWS V13.00,2013-02-06 23:35:00,
2013-02-06 18:40:00,28.8,13.0,30.15,WNW,286,4.0,9.0,51,0.00,,---,0.00,VWS V13.00,2013-02-06 23:40:00,
2013-02-06 18:45:00,28.8,13.0,30.16,NW,312,7.0,9.0,51,0.00,,---,0.00,VWS V13.00,2013-02-06 23:45:00,
2013-02-06 18:50:00,28.7,12.9,30.16,West,263,5.0,10.0,51,0.00,,---,0.00,VWS V13.00,2013-02-06 23:50:00,
2013-02-06 18:55:00,28.6,12.8,30.17,WNW,298,5.0,10.0,51,0.00,,---,0.00,VWS V13.00,2013-02-06 23:55:00,
2013-02-06 19:00:00,28.6,11.9,30.17,West,279,2.0,12.0,49,0.00,,---,0.00,VWS V13.00,2013-02-07 00:00:00,
2013-02-06 19:05:00,28.5,11.3,30.17,West,273,4.0,12.0,48,0.00,,---,0.00,VWS V13.00,2013-02-07 00:05:00,
2013-02-06 19:10:00,28.4,11.2,30.18,WNW,292,6.0,11.0,48,0.00,,---,0.00,VWS V13.00,2013-02-07 00:10:00,
2013-02-06 19:15:00,28.4,9.8,30.18,NW,317,10.0,12.0,45,0.00,,---,0.00,VWS V13.00,2013-02-07 00:15:00,
2013-02-06 19:20:00,28.5,9.9,30.18,North,355,6.0,13.0,45,0.00,,---,0.00,VWS V13.00,2013-02-07 00:20:00,
2013-02-06 19:25:00,28.4,8.8,30.18,NW,325,3.0,14.0,43,0.00,,---,0.00,VWS V13.00,2013-02-07 00:25:00,
2013-02-06 19:30:00,28.3,8.7,30.18,WNW,298,10.0,17.0,43,0.00,,---,0.00,VWS V13.00,2013-02-07 00:30:00,
2013-02-06 19:35:00,28.3,8.7,30.18,WNW,286,9.0,17.0,43,0.00,,---,0.00,VWS V13.00,2013-02-07 00:35:00,
2013-02-06 19:40:00,28.2,9.1,30.18,NNW,342,10.0,12.0,44,0.00,,---,0.00,VWS V13.00,2013-02-07 00:40:00,
2013-02-06 19:45:00,28.2,9.1,30.19,WNW,296,2.0,17.0,44,0.00,,---,0.00,VWS V13.00,2013-02-07 00:45:00,
2013-02-06 19:50:00,28.1,9.5,30.19,NW,304,9.0,17.0,45,0.00,,---,0.00,VWS V13.00,2013-02-07 00:50:00,
2013-02-06 19:55:00,27.9,11.2,30.20,NW,304,3.0,17.0,49,0.00,,---,0.00,VWS V13.00,2013-02-07 00:55:00,
2013-02-06 20:00:00,27.6,12.7,30.20,North,355,7.0,17.0,53,0.00,,---,0.00,VWS V13.00,2013-02-07 01:00:00,
2013-02-06 20:05:00,27.2,13.6,30.20,WNW,300,3.0,17.0,56,0.00,,---,0.00,VWS V13.00,2013-02-07 01:05:00,
2013-02-06 20:10:00,26.8,14.0,30.20,NW,304,0.0,7.0,58,0.00,,---,0.00,VWS V13.00,2013-02-07 01:10:00,
2013-02-06 20:15:00,26.6,14.2,30.20,WNW,298,1.0,11.0,59,0.00,,---,0.00,VWS V13.00,2013-02-07 01:15:00,
2013-02-06 20:20:00,26.3,14.3,30.21,North,360,6.0,11.0,60,0.00,,---,0.00,VWS V13.00,2013-02-07 01:20:00,
2013-02-06 20:25:00,26.1,14.1,30.21,WNW,302,2.0,12.0,60,0.00,,---,0.00,VWS V13.00,2013-02-07 01:25:00,
2013-02-06 20:30:00,26.0,14.0,30.22,WNW,290,4.0,13.0,60,0.00,,---,0.00,VWS V13.00,2013-02-07 01:30:00,
2013-02-06 20:35:00,25.8,13.9,30.22,NW,314,4.0,13.0,60,0.00,,---,0.00,VWS V13.00,2013-02-07 01:35:00,
2013-02-06 20:40:00,25.6,13.3,30.22,NW,323,2.0,9.0,59,0.00,,---,0.00,VWS V13.00,2013-02-07 01:40:00,
2013-02-06 20:45:00,25.5,12.8,30.23,NW,325,3.0,9.0,58,0.00,,---,0.00,VWS V13.00,2013-02-07 01:45:00,
2013-02-06 20:50:00,25.3,11.8,30.23,NE,42,2.0,13.0,56,0.00,,---,0.00,VWS V13.00,2013-02-07 01:50:00,
2013-02-06 20:55:00,25.2,10.9,30.23,NW,325,3.0,13.0,54,0.00,,---,0.00,VWS V13.00,2013-02-07 01:55:00,
2013-02-06 21:00:00,25.1,11.2,30.24,NNW,331,1.0,13.0,55,0.00,,---,0.00,VWS V13.00,2013-02-07 02:00:00,
2013-02-06 21:05:00,24.9,11.4,30.24,NW,325,2.0,13.0,56,0.00,,---,0.00,VWS V13.00,2013-02-07 02:05:00,
2013-02-06 21:10:00,24.7,12.0,30.24,NW,311,3.0,6.0,58,0.00,,---,0.00,VWS V13.00,2013-02-07 02:10:00,
2013-02-06 21:15:00,24.4,11.8,30.24,NW,306,4.0,9.0,58,0.00,,---,0.00,VWS V13.00,2013-02-07 02:15:00,
2013-02-06 21:20:00,24.2,11.6,30.24,WNW,284,3.0,9.0,58,0.00,,---,0.00,VWS V13.00,2013-02-07 02:20:00,
2013-02-06 21:25:00,23.9,10.1,30.25,NNW,328,6.0,11.0,55,0.00,,---,0.00,VWS V13.00,2013-02-07 02:25:00,
2013-02-06 21:30:00,23.9,8.9,30.25,WNW,290,1.0,14.0,52,0.00,,---,0.00,VWS V13.00,2013-02-07 02:30:00,
2013-02-06 21:35:00,23.8,7.9,30.25,West,275,7.0,14.0,50,0.00,,---,0.00,VWS V13.00,2013-02-07 02:35:00,
2013-02-06 21:40:00,23.8,7.4,30.26,NW,320,3.0,13.0,49,0.00,,---,0.00,VWS V13.00,2013-02-07 02:40:00,
2013-02-06 21:45:00,23.7,7.8,30.26,NW,304,6.0,13.0,50,0.00,,---,0.00,VWS V13.00,2013-02-07 02:45:00,
2013-02-06 21:50:00,23.5,7.2,30.26,NW,317,3.0,13.0,49,0.00,,---,0.00,VWS V13.00,2013-02-07 02:50:00,
2013-02-06 21:55:00,23.4,7.1,30.27,WNW,300,3.0,15.0,49,0.00,,---,0.00,VWS V13.00,2013-02-07 02:55:00,
2013-02-06 22:00:00,23.1,6.3,30.27,West,271,1.0,15.0,48,0.00,,---,0.00,VWS V13.00,2013-02-07 03:00:00,
2013-02-06 22:05:00,23.0,6.7,30.28,WNW,290,0.0,15.0,49,0.00,,---,0.00,VWS V13.00,2013-02-07 03:05:00,
2013-02-06 22:10:00,22.8,7.8,30.28,NW,318,3.0,9.0,52,0.00,,---,0.00,VWS V13.00,2013-02-07 03:10:00,
2013-02-06 22:15:00,22.5,8.4,30.28,West,259,2.0,12.0,54,0.00,,---,0.00,VWS V13.00,2013-02-07 03:15:00,
2013-02-06 22:20:00,22.2,8.5,30.29,NW,325,2.0,12.0,55,0.00,,---,0.00,VWS V13.00,2013-02-07 03:20:00,
2013-02-06 22:25:00,21.9,8.2,30.29,NW,325,1.0,12.0,55,0.00,,---,0.00,VWS V13.00,2013-02-07 03:25:00,
2013-02-06 22:30:00,21.6,7.5,30.29,NW,323,10.0,12.0,54,0.00,,---,0.00,VWS V13.00,2013-02-07 03:30:00,
2013-02-06 22:35:00,21.3,6.8,30.30,WNW,294,1.0,12.0,53,0.00,,---,0.00,VWS V13.00,2013-02-07 03:35:00,
2013-02-06 22:40:00,21.1,6.7,30.29,NNW,334,4.0,12.0,53,0.00,,---,0.00,VWS V13.00,2013-02-07 03:40:00,
2013-02-06 22:45:00,20.9,6.1,30.29,NW,322,3.0,12.0,52,0.00,,---,0.00,VWS V13.00,2013-02-07 03:45:00,
2013-02-06 22:50:00,20.7,5.9,30.29,WNW,303,1.0,13.0,52,0.00,,---,0.00,VWS V13.00,2013-02-07 03:50:00,
2013-02-06 22:55:00,20.7,5.4,30.29,WNW,302,3.0,13.0,51,0.00,,---,0.00,VWS V13.00,2013-02-07 03:55:00,
2013-02-06 23:00:00,20.5,5.3,30.30,NNW,327,1.0,13.0,51,0.00,,---,0.00,VWS V13.00,2013-02-07 04:00:00,
2013-02-06 23:05:00,20.4,5.2,30.30,NNW,333,2.0,13.0,51,0.00,,---,0.00,VWS V13.00,2013-02-07 04:05:00,
2013-02-06 23:10:00,20.2,5.0,30.30,WNW,300,5.0,5.0,51,0.00,,---,0.00,VWS V13.00,2013-02-07 04:10:00,
2013-02-06 23:15:00,20.0,4.8,30.31,NW,309,0.0,6.0,51,0.00,,---,0.00,VWS V13.00,2013-02-07 04:15:00,
2013-02-06 23:20:00,19.7,4.1,30.31,NW,325,5.0,13.0,50,0.00,,---,0.00,VWS V13.00,2013-02-07 04:20:00,
2013-02-06 23:25:00,19.7,3.7,30.32,NNW,328,4.0,13.0,49,0.00,,---,0.00,VWS V13.00,2013-02-07 04:25:00,
2013-02-06 23:30:00,19.5,3.5,30.32,NNW,339,5.0,13.0,49,0.00,,---,0.00,VWS V13.00,2013-02-07 04:30:00,
2013-02-06 23:35:00,19.2,3.2,30.32,NW,325,0.0,13.0,49,0.00,,---,0.00,VWS V13.00,2013-02-07 04:35:00,
2013-02-06 23:40:00,18.9,2.0,30.32,NW,321,0.0,16.0,47,0.00,,---,0.00,VWS V13.00,2013-02-07 04:40:00,
2013-02-06 23:45:00,18.7,1.8,30.32,North,349,2.0,16.0,47,0.00,,---,0.00,VWS V13.00,2013-02-07 04:45:00,
2013-02-06 23:50:00,18.5,1.6,30.31,NNW,348,2.0,16.0,47,0.00,,---,0.00,VWS V13.00,2013-02-07 04:50:00,
2013-02-06 23:55:00,18.3,0.5,30.32,NW,321,3.0,16.0,45,0.00,,---,0.00,VWS V13.00,2013-02-07 04:55:00,